GW4833 Weather Reports


time (UTC)temp
C
wind
direction
speed
KPH
gust
KPH
rain 1hr
cm
rain 24hr
cm
rain mn
cm
humidity
%
barometer
mb
20260510202653 29 286 3.2 6.4 0.00 0.00 0.00 30 1015.1
20260510202149 28 261 4.8 4.8 0.00 0.00 0.00 26 1015.3
20260510201646 28 250 3.2 4.8 0.00 0.00 0.00 31 1015.2
20260510201143 28 321 4.8 4.8 0.00 0.00 0.00 33 1015.1
20260510200640 28 266 9.7 9.7 0.00 0.00 0.00 32 1015.7
20260510200137 28 264 6.4 8.0 0.00 0.00 0.00 28 1015.4
20260510195635 28 43 3.2 4.8 0.00 0.00 0.00 31 1015.5
20260510195131 28 248 3.2 9.7 0.00 0.00 0.00 29 1015.5
20260510194630 28 322 3.2 8.0 0.00 0.00 0.00 34 1015.4
20260510194127 27 220 3.2 9.7 0.00 0.00 0.00 30 1015.5
20260510193622 28 195 0.0 8.0 0.00 0.00 0.00 30 1015.8
20260510193118 27 250 6.4 11.3 0.00 0.00 0.00 28 1015.7
20260510192613 27 247 3.2 17.7 0.00 0.00 0.00 31 1015.7
20260510192109 28 228 14.5 14.5 0.00 0.00 0.00 28 1015.7
20260510191606 28 247 0.0 1.6 0.00 0.00 0.00 31 1015.3
20260510191102 28 283 4.8 8.0 0.00 0.00 0.00 33 1015.4
20260510190600 28 212 0.0 4.8 0.00 0.00 0.00 30 1015.8
20260510190057 30 89 0.0 3.2 0.00 0.00 0.00 25 1015.5
20260510185554 30 265 3.2 3.2 0.00 0.00 0.00 30 1015.4
20260510185051 28 250 3.2 3.2 0.00 0.00 0.00 31 1015.5
20260510184548 29 41 1.6 3.2 0.00 0.00 0.00 30 1015.9
20260510184043 28 38 3.2 3.2 0.00 0.00 0.00 29 1015.7
20260510183539 28 235 4.8 4.8 0.00 0.00 0.00 34 1015.8
20260510183034 27 267 6.4 9.7 0.00 0.00 0.00 30 1015.7
20260510182531 27 329 3.2 14.5 0.00 0.00 0.00 29 1015.5
20260510182026 27 354 8.0 8.0 0.00 0.00 0.00 29 1015.7
20260510181525 27 204 1.6 6.4 0.00 0.00 0.00 33 1016.0
20260510181020 27 288 6.4 12.9 0.00 0.00 0.00 30 1016.0
20260510180518 29 167 0.0 1.6 0.00 0.00 0.00 32 1015.8
20260510180015 27 290 1.6 3.2 0.00 0.00 0.00 36 1016.1
20260510175510 27 307 3.2 4.8 0.00 0.00 0.00 32 1015.9
20260510175006 27 19 3.2 3.2 0.00 0.00 0.00 29 1016.2
20260510174504 27 294 1.6 8.0 0.00 0.00 0.00 27 1016.2
20260510174001 27 281 3.2 6.4 0.00 0.00 0.00 30 1016.2
20260510173457 27 285 9.7 11.3 0.00 0.00 0.00 29 1016.1
20260510172954 28 252 3.2 4.8 0.00 0.00 0.00 34 1016.2
20260510172449 28 125 1.6 3.2 0.00 0.00 0.00 34 1016.2
20260510171946 26 262 6.4 8.0 0.00 0.00 0.00 31 1016.3
20260510171443 26 233 3.2 11.3 0.00 0.00 0.00 31 1016.4
20260510170939 27 17 4.8 6.4 0.00 0.00 0.00 31 1016.3
20260510170436 26 327 3.2 4.8 0.00 0.00 0.00 35 1016.4
20260510165932 26 59 6.4 6.4 0.00 0.00 0.00 33 1016.3
20260510165428 26 258 0.0 3.2 0.00 0.00 0.00 34 1016.4
20260510164925 27 266 3.2 9.7 0.00 0.00 0.00 33 1016.1
20260510164417 26 322 1.6 3.2 0.00 0.00 0.00 34 1016.3
20260510163916 26 59 4.8 8.0 0.00 0.00 0.00 33 1016.3
20260510163413 26 258 3.2 9.7 0.00 0.00 0.00 36 1016.4
20260510162907 25 243 9.7 9.7 0.00 0.00 0.00 35 1016.4
20260510162405 26 206 8.0 8.0 0.00 0.00 0.00 30 1016.3
20260510161900 26 255 0.0 3.2 0.00 0.00 0.00 42 1016.5
20260510161356 26 247 3.2 4.8 0.00 0.00 0.00 36 1016.4
20260510160854 26 31 4.8 8.0 0.00 0.00 0.00 35 1016.4
20260510160351 25 248 3.2 6.4 0.00 0.00 0.00 41 1016.6
20260510155849 26 240 3.2 9.7 0.00 0.00 0.00 37 1016.4
20260510155347 25 350 3.2 6.4 0.00 0.00 0.00 40 1016.4
20260510154843 25 106 1.6 12.9 0.00 0.00 0.00 38 1016.5
20260510154339 26 58 3.2 6.4 0.00 0.00 0.00 38 1016.5
20260510153834 26 51 3.2 6.4 0.00 0.00 0.00 42 1016.7
20260510153330 25 226 1.6 9.7 0.00 0.00 0.00 38 1016.4
20260510152827 25 214 4.8 8.0 0.00 0.00 0.00 37 1016.4
20260510152324 24 261 1.6 6.4 0.00 0.00 0.00 42 1016.4
20260510151820 23 225 6.4 6.4 0.00 0.00 0.00 41 1016.6
20260510151318 25 286 4.8 4.8 0.00 0.00 0.00 47 1016.3
20260510150813 24 126 0.0 3.2 0.00 0.00 0.00 42 1016.6
20260510150309 23 254 3.2 9.7 0.00 0.00 0.00 43 1016.5
20260510145805 25 115 4.8 6.4 0.00 0.00 0.00 42 1016.6
20260510145305 23 180 3.2 4.8 0.00 0.00 0.00 43 1016.5
20260510144758 23 255 8.0 14.5 0.00 0.00 0.00 47 1016.5
20260510144255 25 156 1.6 3.2 0.00 0.00 0.00 52 1016.6
20260510143749 23 241 11.3 14.5 0.00 0.00 0.00 48 1016.5
20260510143246 22 216 3.2 6.4 0.00 0.00 0.00 52 1016.5
20260510142742 22 311 3.2 8.0 0.00 0.00 0.00 57 1016.6
20260510142239 22 228 8.0 8.0 0.00 0.00 0.00 53 1016.6
20260510141736 22 234 11.3 11.3 0.00 0.00 0.00 56 1016.5
20260510141235 22 256 9.7 9.7 0.00 0.00 0.00 58 1016.5
20260510140731 21 240 8.0 8.0 0.00 0.00 0.00 62 1016.6
20260510140231 21 237 0.0 11.3 0.00 0.00 0.00 64 1016.7
20260510135726 21 269 1.6 8.0 0.00 0.00 0.00 63 1016.4
20260510135222 21 84 0.0 8.0 0.00 0.00 0.00 63 1016.6
20260510134719 21 249 0.0 6.4 0.00 0.00 0.00 63 1016.4
20260510134217 20 218 8.0 14.5 0.00 0.00 0.00 65 1016.4
20260510133712 20 260 4.8 14.5 0.00 0.00 0.00 67 1016.3
20260510133208 20 225 3.2 6.4 0.00 0.00 0.00 70 1016.3
20260510132659 20 251 11.3 11.3 0.00 0.00 0.00 72 1016.4
20260510132156 20 234 9.7 9.7 0.00 0.00 0.00 76 1016.5
20260510131654 20 126 0.0 9.7 0.00 0.00 0.00 76 1016.4
20260510131151 19 235 4.8 9.7 0.00 0.00 0.00 78 1016.5
20260510130648 18 287 1.6 4.8 0.00 0.00 0.00 82 1016.4
20260510130145 18 236 1.6 8.0 0.00 0.00 0.00 85 1016.4
20260510125640 17 290 3.2 6.4 0.00 0.00 0.00 90 1016.7
20260510125137 17 243 6.4 6.4 0.00 0.00 0.00 92 1016.4
20260510124635 16 226 3.2 6.4 0.00 0.00 0.00 94 1016.2
20260510124131 16 289 1.6 6.4 0.00 0.00 0.00 98 1016.3
20260510123627 15 262 1.6 4.8 0.00 0.00 0.00 99 1016.1
20260510123123 15 267 3.2 3.2 0.00 0.00 0.00 99 1015.9
20260510122619 15 233 4.8 6.4 0.00 0.00 0.00 99 1015.9
20260510122114 15 272 3.2 4.8 0.00 0.00 0.00 99 1015.8
20260510121611 15 255 1.6 3.2 0.00 0.00 0.00 99 1015.5
20260510121108 15 243 4.8 6.4 0.00 0.00 0.00 99 1015.5
20260510120607 15 37 0.0 0.0 0.00 0.00 0.00 99 1015.1
20260510115558 14 224 0.0 0.0 0.00 0.00 0.00 99 1015.1
20260510115056 13 216 0.0 3.2 0.00 0.00 0.00 99 1015.4
20260510114552 13 235 0.0 1.6 0.00 0.00 0.00 99 1015.1
20260510114048 13 247 3.2 3.2 0.00 0.00 0.00 99 1014.9
20260510113544 13 266 1.6 3.2 0.00 0.00 0.00 99 1015.1
20260510113041 12 218 1.6 3.2 0.00 0.00 0.00 99 1014.9
20260510112538 12 249 3.2 3.2 0.00 0.00 0.00 99 1015.0
20260510112034 12 256 1.6 3.2 0.00 0.00 0.00 99 1015.0
20260510111531 12 251 1.6 3.2 0.00 0.00 0.00 99 1014.6
20260510111027 12 248 3.2 3.2 0.00 0.00 0.00 99 1014.7
20260510110523 12 248 1.6 1.6 0.00 0.00 0.00 99 1014.6
20260510110020 12 309 0.0 0.0 0.00 0.00 0.00 99 1014.4
20260510105515 12 235 0.0 0.0 0.00 0.00 0.00 99 1014.4
20260510105010 12 235 0.0 0.0 0.00 0.00 0.00 99 1014.4
20260510104507 12 230 0.0 0.0 0.00 0.00 0.00 99 1014.1
20260510104003 12 230 0.0 0.0 0.00 0.00 0.00 99 1014.2
20260510103501 12 230 0.0 0.0 0.00 0.00 0.00 99 1013.9
20260510102955 12 309 0.0 1.6 0.00 0.00 0.00 99 1014.0
20260510102452 12 278 1.6 1.6 0.00 0.00 0.00 99 1013.9
20260510101948 12 306 1.6 1.6 0.00 0.00 0.00 99 1013.9
20260510101446 12 50 0.0 1.6 0.00 0.00 0.00 99 1013.8
20260510100945 12 269 0.0 3.2 0.00 0.00 0.00 99 1013.5
20260510100440 12 288 3.2 3.2 0.00 0.00 0.00 99 1013.6
20260510095937 12 222 1.6 3.2 0.00 0.00 0.00 99 1013.6
20260510095432 12 230 0.0 1.6 0.00 0.00 0.00 99 1013.4
20260510094932 12 287 3.2 3.2 0.00 0.00 0.00 99 1013.4
20260510094426 12 290 3.2 3.2 0.00 0.00 0.00 99 1013.5
20260510093923 12 283 0.0 1.6 0.00 0.00 0.00 99 1013.6
20260510093418 12 263 0.0 3.2 0.00 0.00 0.00 99 1013.6
20260510092915 12 286 0.0 3.2 0.00 0.00 0.00 99 1013.6
20260510092407 12 274 1.6 1.6 0.00 0.00 0.00 99 1013.3
20260510091906 12 292 0.0 3.2 0.00 0.00 0.00 99 1013.4
20260510091404 12 310 0.0 3.2 0.00 0.00 0.00 99 1013.4
20260510090901 12 290 0.0 1.6 0.00 0.00 0.00 99 1013.3
20260510090357 12 261 1.6 3.2 0.00 0.00 0.00 99 1013.2
20260510085853 12 278 1.6 3.2 0.00 0.00 0.00 99 1013.3
20260510085348 12 291 1.6 1.6 0.00 0.00 0.00 99 1013.2
20260510084843 12 303 1.6 3.2 0.00 0.00 0.00 99 1013.2
20260510084341 12 301 1.6 3.2 0.00 0.00 0.00 99 1013.2
20260510083837 12 294 0.0 1.6 0.00 0.00 0.00 99 1013.1
20260510083334 12 50 0.0 0.0 0.00 0.00 0.00 99 1013.2
20260510082829 12 55 1.6 1.6 0.00 0.00 0.00 99 1013.3
20260510082327 12 55 0.0 0.0 0.00 0.00 0.00 99 1013.2
20260510081826 12 230 0.0 0.0 0.00 0.00 0.00 99 1013.0
20260510081322 13 230 0.0 0.0 0.00 0.00 0.00 99 1012.6
20260510080818 12 233 0.0 0.0 0.00 0.00 0.00 99 1012.7
20260510080313 12 309 0.0 0.0 0.00 0.00 0.00 99 1012.6
20260510075810 12 309 0.0 0.0 0.00 0.00 0.00 99 1012.7
20260510075308 13 309 0.0 0.0 0.00 0.00 0.00 99 1012.6
20260510074804 13 230 0.0 0.0 0.00 0.00 0.00 99 1012.7
20260510074301 12 22 0.0 0.0 0.00 0.00 0.00 99 1012.7
20260510073757 13 22 0.0 0.0 0.00 0.00 0.00 99 1012.7
20260510073253 13 50 0.0 0.0 0.00 0.00 0.00 99 1012.6
20260510072749 13 69 0.0 0.0 0.00 0.00 0.00 99 1012.8
20260510072246 13 69 0.0 1.6 0.00 0.00 0.00 99 1012.7
20260510071742 13 100 1.6 1.6 0.00 0.00 0.00 99 1012.6
20260510071239 13 87 1.6 3.2 0.00 0.00 0.00 99 1012.7
20260510070738 13 59 1.6 1.6 0.00 0.00 0.00 99 1012.8
20260510070234 13 66 0.0 0.0 0.00 0.00 0.00 99 1012.5
20260510065729 13 66 0.0 0.0 0.00 0.00 0.00 99 1012.5
20260510065226 13 76 0.0 1.6 0.00 0.00 0.00 99 1012.4
20260510064722 13 130 0.0 1.6 0.00 0.00 0.00 99 1012.6
20260510064220 13 103 0.0 0.0 0.00 0.00 0.00 99 1012.7
20260510063717 13 78 3.2 3.2 0.00 0.00 0.00 99 1012.5
20260510063213 13 24 0.0 0.0 0.00 0.00 0.00 99 1012.6
20260510062709 13 322 0.0 0.0 0.00 0.00 0.00 99 1012.4
20260510062206 13 252 0.0 3.2 0.00 0.00 0.00 99 1012.6
20260510061700 13 315 0.0 0.0 0.00 0.00 0.00 99 1012.4
20260510061158 13 296 0.0 0.0 0.00 0.00 0.00 99 1012.7
20260510060654 13 304 0.0 0.0 0.00 0.00 0.00 99 1012.7
20260510060151 13 307 0.0 3.2 0.00 0.00 0.00 99 1012.7
20260510055647 13 296 0.0 1.6 0.00 0.00 0.00 99 1012.5
20260510055145 13 269 0.0 1.6 0.00 0.00 0.00 99 1012.6
20260510054641 13 32 0.0 0.0 0.00 0.00 0.00 99 1012.6
20260510054137 13 32 0.0 0.0 0.00 0.00 0.00 99 1012.6
20260510053636 13 230 0.0 1.6 0.00 0.00 0.00 99 1012.7
20260510053133 13 309 0.0 0.0 0.00 0.00 0.00 99 1012.8
20260510052629 13 309 0.0 0.0 0.00 0.00 0.00 99 1012.8
20260510052125 13 257 0.0 1.6 0.00 0.00 0.00 99 1012.7
20260510051620 13 60 0.0 0.0 0.00 0.00 0.00 99 1012.9
20260510051118 14 60 0.0 1.6 0.00 0.00 0.00 99 1012.9
20260510050615 14 66 0.0 0.0 0.00 0.00 0.00 99 1013.0
20260510050112 14 50 1.6 1.6 0.00 0.00 0.00 99 1013.1
20260510045609 14 82 1.6 3.2 0.00 0.00 0.00 99 1012.9
20260510045105 14 69 0.0 1.6 0.00 0.00 0.00 99 1013.1
20260510044602 14 309 0.0 0.0 0.00 0.00 0.00 99 1012.9
20260510044059 14 297 0.0 0.0 0.00 0.00 0.00 99 1013.1
20260510043555 14 269 1.6 3.2 0.00 0.00 0.00 99 1013.1
20260510043051 14 290 0.0 1.6 0.00 0.00 0.00 99 1013.0
20260510042550 14 50 0.0 3.2 0.00 0.00 0.00 99 1013.1
20260510042045 14 77 1.6 3.2 0.00 0.00 0.00 99 1013.0
20260510041543 15 114 1.6 3.2 0.00 0.00 0.00 99 1013.0
20260510041040 15 103 0.0 3.2 0.00 0.00 0.00 99 1013.1
20260510040537 15 103 0.0 3.2 0.00 0.00 0.00 99 1013.0
20260510040032 15 75 1.6 3.2 0.00 0.00 0.00 99 1012.9
20260510035529 15 89 0.0 1.6 0.00 0.00 0.00 99 1013.0
20260510035028 15 57 1.6 1.6 0.00 0.00 0.00 99 1013.0
20260510034527 15 217 0.0 3.2 0.00 0.00 0.00 99 1013.1
20260510034023 15 242 0.0 3.2 0.00 0.00 0.00 99 1013.0
20260510033519 15 22 0.0 1.6 0.00 0.00 0.00 99 1012.9
20260510033018 15 145 0.0 1.6 0.00 0.00 0.00 99 1012.9
20260510032514 15 113 0.0 0.0 0.00 0.00 0.00 99 1012.9
20260510032009 15 309 0.0 0.0 0.00 0.00 0.00 99 1012.9
20260510031504 15 240 0.0 0.0 0.00 0.00 0.00 99 1013.0
20260510031000 15 269 0.0 3.2 0.00 0.00 0.00 99 1013.0
20260510030455 15 60 0.0 0.0 0.00 0.00 0.00 99 1012.8
20260510025953 15 30 0.0 1.6 0.00 0.00 0.00 99 1012.9
20260510025450 15 142 0.0 0.0 0.00 0.00 0.00 99 1013.0
20260510024947 15 89 0.0 1.6 0.00 0.00 0.00 99 1012.9
20260510024443 15 89 0.0 3.2 0.00 0.00 0.00 99 1013.0
20260510023939 15 83 1.6 1.6 0.00 0.00 0.00 99 1013.0
20260510023436 15 80 0.0 1.6 0.00 0.00 0.00 99 1012.9
20260510022933 15 82 1.6 1.6 0.00 0.00 0.00 98 1012.8
20260510022432 15 37 0.0 1.6 0.00 0.00 0.00 98 1012.8
20260510021931 15 44 0.0 1.6 0.00 0.00 0.00 98 1012.7
20260510021430 15 124 0.0 1.6 0.00 0.00 0.00 98 1012.6
20260510020927 15 217 0.0 0.0 0.00 0.00 0.00 98 1012.8
20260510020426 15 217 0.0 0.0 0.00 0.00 0.00 98 1012.6
20260510015922 15 224 0.0 0.0 0.00 0.00 0.00 98 1012.8
20260510015418 15 229 1.6 3.2 0.00 0.00 0.00 97 1012.6
20260510014913 15 218 0.0 1.6 0.00 0.00 0.00 97 1012.6
20260510014412 15 73 0.0 0.0 0.00 0.00 0.00 97 1012.4
20260510013908 15 224 0.0 0.0 0.00 0.00 0.00 96 1012.6
20260510013403 16 224 0.0 0.0 0.00 0.00 0.00 96 1012.3
20260510012858 16 124 0.0 0.0 0.00 0.00 0.00 95 1012.3
20260510012353 16 224 0.0 0.0 0.00 0.00 0.00 95 1012.2
20260510011848 16 224 0.0 0.0 0.00 0.00 0.00 95 1012.2
20260510011344 16 269 0.0 1.6 0.00 0.00 0.00 95 1012.2
20260510010840 16 267 1.6 3.2 0.00 0.00 0.00 95 1012.2
20260510010338 16 262 1.6 3.2 0.00 0.00 0.00 94 1012.0
20260510005834 16 244 0.0 0.0 0.00 0.00 0.00 93 1011.7
20260510005330 16 240 0.0 0.0 0.00 0.00 0.00 93 1011.4
20260510004828 16 13 0.0 1.6 0.00 0.00 0.00 92 1011.4
20260510004326 16 142 0.0 1.6 0.00 0.00 0.00 92 1011.7
20260510003823 17 224 0.0 0.0 0.00 0.00 0.00 91 1011.4
20260510003320 17 217 0.0 1.6 0.00 0.00 0.00 90 1011.3
20260510002818 17 224 0.0 0.0 0.00 0.00 0.00 90 1011.3
20260510002316 17 246 0.0 1.6 0.00 0.00 0.00 89 1011.4
20260510001812 17 269 0.0 0.0 0.00 0.00 0.00 88 1011.2
20260510001311 18 229 0.0 0.0 0.00 0.00 0.00 87 1010.9
20260510000806 18 329 0.0 0.0 0.00 0.00 0.00 86 1011.1
20260510000304 18 55 0.0 0.0 0.00 0.00 0.00 85 1011.1
20260509235801 18 89 0.0 0.0 0.00 0.00 0.00 84 1010.9
20260509235257 19 89 0.0 0.0 0.00 0.00 0.00 83 1011.1
20260509234753 19 80 0.0 3.2 0.00 0.00 0.00 83 1011.0
20260509234250 19 63 0.0 3.2 0.00 0.00 0.00 82 1010.8
20260509233748 20 157 0.0 3.2 0.00 0.00 0.00 82 1010.9
20260509233246 20 107 1.6 3.2 0.00 0.00 0.00 82 1011.0
20260509232741 20 3 1.6 1.6 0.00 0.00 0.00 81 1010.9
20260509232239 20 22 0.0 0.0 0.00 0.00 0.00 81 1010.8
20260509231735 20 205 0.0 6.4 0.00 0.00 0.00 80 1010.6
20260509231232 20 7 3.2 3.2 0.00 0.00 0.00 80 1010.4
20260509230730 20 142 0.0 3.2 0.00 0.00 0.00 80 1010.5
20260509230227 21 96 0.0 3.2 0.00 0.00 0.00 78 1010.6
20260509225721 21 315 3.2 4.8 0.00 0.00 0.00 75 1010.7
20260509225218 21 340 6.4 8.0 0.00 0.00 0.00 74 1010.6
20260509224714 22 326 6.4 6.4 0.00 0.00 0.00 73 1010.4
20260509224211 23 235 0.0 3.2 0.00 0.00 0.00 71 1010.5
20260509223708 23 42 0.0 4.8 0.00 0.00 0.00 72 1010.4
20260509223205 22 0 0.0 3.2 0.00 0.00 0.00 73 1010.5
20260509222701 22 291 3.2 11.3 0.00 0.00 0.00 74 1010.5
20260509222157 22 287 1.6 4.8 0.00 0.00 0.00 74 1010.3
20260509221653 23 2 1.6 11.3 0.00 0.00 0.00 69 1010.3
20260509221149 23 308 0.0 8.0 0.00 0.00 0.00 69 1010.4
20260509220645 23 321 3.2 4.8 0.00 0.00 0.00 69 1010.4
20260509220142 23 358 1.6 3.2 0.00 0.00 0.00 70 1010.3
20260509215638 24 316 4.8 6.4 0.00 0.00 0.00 65 1010.1
20260509215134 23 355 3.2 3.2 0.00 0.00 0.00 68 1010.4
20260509214632 22 266 3.2 9.7 0.00 0.00 0.00 74 1010.6
20260509214128 22 31 1.6 4.8 0.00 0.00 0.00 74 1010.3
20260509213625 23 314 6.4 11.3 0.00 0.00 0.00 68 1010.5
20260509213121 24 323 1.6 9.7 0.00 0.00 0.00 66 1010.4
20260509212619 24 234 0.0 4.8 0.00 0.00 0.00 64 1010.2
20260509212115 23 161 0.0 6.4 0.00 0.00 0.00 69 1010.2
20260509211611 24 152 0.0 3.2 0.00 0.00 0.00 66 1010.3
20260509211108 24 277 3.2 4.8 0.00 0.00 0.00 68 1010.4
20260509210605 25 324 1.6 12.9 0.00 0.00 0.00 65 1010.2
20260509205555 23 280 3.2 4.8 0.00 0.00 0.00 71 1010.1
20260509205051 22 32 0.0 9.7 0.00 0.00 0.00 72 1010.0
20260509204547 22 298 8.0 12.9 0.00 0.00 0.00 66 1009.8
20260509204044 22 335 3.2 9.7 0.00 0.00 0.00 68 1010.1
20260509203540 22 278 6.4 8.0 0.00 0.00 0.00 69 1010.1
20260509203039 23 217 0.0 14.5 0.00 0.00 0.00 69 1010.2